Regional Weather Roundup
Issued by NWS Wilmington, NC

Home | Current Version | Previous Version | Text Only | Print | Product List | Glossary On
Versions: 1 2 3 4 5 6 7 8 9 10 11 12 13 14 15 16 17 18 19 20 21 22 23 24 25 26 27
000
ASUS42 KILM 270713
RWRILM
RWRILM
REGIONAL HOURLY WEATHER ROUNDUP
NATIONAL WEATHER SERVICE WILMINGTON NC
300 AM EDT THU APR 27 2017

NOTE: "FAIR" INDICATES FEW OR NO CLOUDS BELOW 12,000 FEET WITH NO
SIGNIFICANT WEATHER AND/OR OBSTRUCTIONS TO VISIBILITY.

...............WFO WILMINGTON COUNTY WARNING AREA...............

......COASTAL NC AND SC COUNTIES......

CITY           SKY/WX    TMP DP  RH WIND       PRES   REMARKS
WILMINGTON     CLEAR     67  63  87 SW6       29.89S
N MYRTLE BEACH PTCLDY    68  66  93 SW8       29.88S
MYRTLE BEACH   NOT AVBL

......INLAND NC AND SC COUNTIES.......

CITY           SKY/WX    TMP DP  RH WIND       PRES   REMARKS
LUMBERTON      CLEAR     63  60  90 S5        29.87S
ELIZABETHTOWN  CLEAR     64  59  82 CALM      29.88S
WHITEVILLE     CLEAR     60  58  93 CALM      29.88S
FLORENCE       CLEAR     61  59  93 CALM      29.87F
DARLINGTON     CLEAR     64  60  87 S7        29.87F
KINGSTREE      FAIR      61  59  94 CALM      29.87F
HARTSVILLE     FAIR      61  57  88 CALM      29.86F
BENNETTSVILLE  FAIR      64  61  88 S3        29.86F
CONWAY         FAIR      55  55 100 CALM      29.88F
GEORGETOWN     FAIR      64  63  94 S3        29.88F
MARION         FAIR      59  57  94 CALM      29.87F

....................REST OF NORTH CAROLINA......................

.........EASTERN NC.........

CITY           SKY/WX    TMP DP  RH WIND       PRES   REMARKS
CAPE HATTERAS  CLEAR     71  67  87 SW8       29.89S FOG
JACKSONVILLE   CLEAR     63  60  90 SW6       29.89S
MOREHEAD CITY  CLEAR     69  67  93 SW8       29.89S
KENANSVILLE    CLEAR     64  59  82 SW3       29.87S
NEW BERN       CLEAR     65  64  97 S6        29.89R
ELIZABETH CITY CLEAR     67  66  97 S8        29.85S

.........CENTRAL NC.........

CITY           SKY/WX    TMP DP  RH WIND       PRES   REMARKS
RALEIGH DURHAM CLEAR     66  62  87 SW10      29.85S
ROCKY MOUNT    CLEAR     66  63  90 S7        29.85S
ROANOKE RAPIDS NOT AVBL
FAYETTEVILLE   CLEAR     67  59  75 SW9       29.86S
HOFFMAN        NOT AVBL

.........WESTERN NC.........

CITY           SKY/WX    TMP DP  RH WIND       PRES   REMARKS
CHARLOTTE      MOCLDY    65  58  78 S10       29.85S
GREENSBORO     CLEAR     64  61  90 S8        29.82F
HICKORY        NOT AVBL
BOONE          NOT AVBL
ASHEVILLE      NOT AVBL

.....................REST OF SOUTH CAROLINA.....................

.........EASTERN SC.........

CITY           SKY/WX    TMP DP  RH WIND       PRES   REMARKS
CHARLESTON     CLEAR     64  61  90 S6        29.86F
BEAUFORT MCAS  PTCLDY    70  67  90 S8        29.87F
HILTON HEAD    CLEAR     72  66  83 S13G18    29.88F

.........CENTRAL SC.........

CITY           SKY/WX    TMP DP  RH WIND       PRES   REMARKS
COLUMBIA       MOCLDY    67  60  78 S7        29.84F
ORANGEBURG     CLEAR     62  61  96 S3        29.86F
SUMTER SHAW    CLEAR     63  60  88 CALM      29.84F

.........WESTERN SC.........

CITY           SKY/WX    TMP DP  RH WIND       PRES   REMARKS
GREENVILLE     NOT AVBL
ROCK HILL      CLEAR     63  58  83 S6        29.85F
ANDERSON       CLOUDY    64  59  83 CALM      29.84S
CLEMSON        NOT AVBL
GREENWOOD      PTCLDY    65  59  81 S8        29.85F


...................COASTAL AND OFFSHORE REPORTS..................

................LOCAL PIERS AND NC RESERVE................


STATION/POSITION TIME  SKY/WX   TEMP    WIND        PRES    VSBY
                                AIR SEA DIR/SP/G
                 (UTC)          (F)     (DEG/KT/KT) (MB)    (MI)
JOHNY MRCER PIER 0642            69 71  220/  7/  8 1011.1F
NC RESRV MASNBRO 0545            68     250/  3     1012.0
OCEAN CREST PIER NOT AVBL
SPRINGMAID  PIER 0648                               1011.1F


................COASTAL AND OFFSHORE BUOYS................


STATION/POSITION TIME  SKY/WX   TEMP    WIND        PRES    VSBY
                                AIR SEA DIR/SP/G
                 (UTC)          (F)     (DEG/KT/KT) (MB)    (MI)
DIMNDSHOAL 41025 0650            76 76  230/ 19/ 23 1011.8F
WVE H/P(F/S)=  7/ 9 SWL H/P/D(F/S/D)=  5/130/ 9

CAPE LOOKOUT     0700            70     220/  6/  8 1011.9S
ONSLOW BAY 41036 NOT AVBL
ONSLOW BAY 41064 0608            71     230/ 12/ 16 1012.3F
ONSLOW BAY 41159 0643               71                N/A
WVE H/P(F/S)=  5/ 8 SWL H/P/D(F/S/D)=  2/120/11

MASNBO INL 41110 0659               70                N/A
WVE H/P(F/S)=  3/ 8

WILM HARBR 41108 0647               70                N/A
WVE H/P(F/S)=  4/ 9

27SE WRITB 41037 0608            72 72  210/ 12/ 16 1011.4F
FRYING PAN 41013 0650            74 74  210/ 10/ 12 1012.0F
WVE H/P(F/S)=  4/ 8 SWL H/P/D(F/S/D)=  3/120/ 8

SUNST NRSH 41024 0608            70 69  230/  8/ 10 1011.9F
CAPRS NRSH 41029 0608            75 72  210/ 10/ 16 1011.9S
EDISTO     41004 0650            74 73  210/ 14/ 17 1011.8F
WVE H/P(F/S)=  5/ 8 SWL H/P/D(F/S/D)=  3/140/ 8



..........OFFSHORE BUOYS BEYOND 100 NM OFFSHORE...........
.....IN A TRIANGLE---HAT TO BERMUDA TO BAHAMAS TO HAT.....


STATION/POSITION TIME  SKY/WX   TEMP    WIND        PRES    VSBY
                                AIR SEA DIR/SP/G
                 (UTC)          (F)     (DEG/KT/KT) (MB)    (MI)
150E HAT   41001 0700            72 74  190/ 12/ 14 1014.0
W BERMUDA  41048 0700            71 70  180/  8/ 10 1017.5
ATLANTIC S 41049 0650            72 72  120/ 12/ 14 1020.3S
WVE H/P(F/S)=  5/ 7 SWL H/P/D(F/S/D)=  5/ 80/ 7

E BAHAMAS  41046 0700            76 77   90/  8/ 10 1016.5
NE BAHAMAS 41047 0700            75 75  130/  6/  8 1017.4
120E CANVRL41010 0650            77 78  150/ 12/ 16 1013.5F
WVE H/P(F/S)=  4/ 8 SWL H/P/D(F/S/D)=  3/130/ 8


END




USA.gov is the U.S. government's official web portal to all federal, state and local government web resources and services.